[[{"header":{"parameterUnit":"m.s-1","parameterCategory":1,"la1":30.2991,"la2":30.254,"lo1":-89.0895,"lo2":-89.0444,"dy":0.0017,"dx":0.0017,"nx":28,"ny":28,"refTime":"2024-10-13T09:00:00:Z","depth":0,"parameterNumber":2,"parameterNumberName":"U-component_of_WINDS"},"data":[0,0,0,0,0,0,0,0,0,0,0,0,0,0,0,0,0,0,0,0,0,0,0,0,0,0,0,0,0,0,0,0,0,0,0,0,0,0,0,0,0,0,0,0,0,0,0,0,0,0,0,0,0,0,0,0,0,0,3.2562,3.2563,0,3.2634,3.2635,3.2636,3.2567,3.2564,3.2561,3.2559,3.2638,3.2643,3.2648,0,0,0,0,0,0,0,0,0,0,0,0,0,3.2376,3.2379,3.2562,3.2563,3.2564,3.2634,3.2635,3.2636,3.2567,3.2564,3.2561,3.2558,3.2637,3.2642,3.2648,0,0,0,0,0,0,0,0,0,0,0,0,0,3.2453,3.2381,3.2562,3.2538,3.2537,3.2634,3.2635,3.2636,3.2568,3.2564,3.256,3.2556,3.2635,3.2642,3.2649,3.2775,0,0,3.267,3.2673,0,0,0,0,0,0,0,0,3.2449,3.246,3.2541,3.254,3.2539,3.2587,3.2598,3.2683,3.2569,3.2556,3.2559,3.2554,3.2625,3.2633,3.2655,3.2778,3.2782,3.2671,3.2675,3.2678,3.268,0,0,0,0,0,0,0,3.2444,3.2457,3.2591,3.2542,3.2541,3.2527,3.2533,3.2614,3.2613,3.2557,3.2552,3.2561,3.2624,3.2649,3.2657,3.2783,3.2671,3.2677,3.2681,3.2684,3.302,3.3024,0,0,0,0,0,0,3.244,3.2453,3.2588,3.2593,3.2482,3.2534,3.2541,3.2576,3.2612,3.2614,3.2565,3.2558,3.2639,3.2649,3.2659,3.2813,3.2678,3.2685,3.2689,3.3015,3.3021,3.3026,0,0,0,0,0,0,3.2436,3.2452,3.2586,3.2522,3.2537,3.2541,3.2581,3.2579,3.2604,3.2618,3.2618,3.259,3.2636,3.2649,3.2748,3.2815,3.2688,3.2694,3.301,3.3017,3.3023,3.312,0,0,0,0,0,0,3.2431,3.2451,3.2497,3.2523,3.2541,3.267,3.2585,3.2584,3.2616,3.2607,3.2641,3.2643,3.2634,3.2737,3.2755,3.2822,3.27,3.3004,3.3013,3.3021,3.3111,3.3129,3.3145,0,0,0,0,0,3.2424,3.2521,3.2499,3.2516,3.2597,3.2674,3.2684,3.267,3.2621,3.2669,3.2679,3.2642,3.2804,3.2748,3.2767,3.2838,3.2999,3.301,3.3021,3.3103,3.3125,3.3145,0,0,0,0,0,0,3.2503,3.2524,3.25,3.2607,3.264,3.2662,3.2721,3.2693,3.2741,3.2732,3.2713,3.2722,3.2827,3.2841,3.2778,3.2965,3.2895,3.2909,3.2951,3.2972,3.2989,3.2985,3.2706,0,0,0,0,0,3.2533,3.2591,3.2607,3.27,3.2718,3.2717,3.275,3.2736,3.2769,3.2783,3.2799,3.2835,3.2895,3.2934,3.2989,3.3112,3.3122,3.3171,3.3188,3.3202,3.3216,3.3288,3.3311,3.3061,3.3061,3.306,0,0,3.2596,3.2614,3.2652,3.2717,3.274,3.2804,3.2729,3.2798,3.2847,3.2794,3.2888,3.2902,3.2941,3.3054,3.3104,3.307,3.3287,3.3216,3.3227,3.3233,3.3301,3.3325,3.3346,3.3068,3.3067,3.3065,0,0,3.2743,3.276,3.2843,3.2868,3.2904,3.2904,3.2924,3.2952,3.2959,3.3053,3.3016,3.3075,3.3176,3.3207,3.3236,3.3401,3.3371,3.3419,3.351,3.358,3.36,3.3617,3.368,3.3702,3.3432,3.3433,3.3433,0,3.2816,3.2908,3.2889,3.2962,3.2995,3.2949,3.3035,3.3061,3.3114,3.3139,3.3099,3.3229,3.3251,3.3373,3.3414,3.3437,3.3463,3.3415,3.3598,3.3615,3.3632,3.3691,3.3715,3.3439,3.3438,3.3437,3.3437,0,3.3,3.3065,3.3127,3.3179,3.3218,3.3298,3.3294,3.3336,3.3321,3.3326,3.3426,3.3452,3.3514,3.3541,3.3526,3.3663,3.3641,3.36,3.353,3.3662,3.3718,3.374,3.3447,3.3445,3.3443,3.3442,0,0,3.3196,3.3239,3.3263,3.3288,3.3327,3.3379,3.3458,3.3518,3.3557,3.3596,3.3665,3.3755,3.3718,3.3752,3.374,3.3801,3.3936,3.3754,3.3754,3.379,3.4094,3.4126,3.4153,3.3916,3.392,3.3923,3.4092,0,3.3347,3.3483,3.3471,3.3601,3.3664,3.3624,3.3695,3.3728,3.3737,3.3794,3.3804,3.3869,3.3814,3.3834,3.3893,3.3907,3.3997,3.3894,3.3984,3.3988,3.3978,3.4181,3.4215,3.4372,3.4113,3.4117,3.4119,0,3.3541,3.3588,3.3725,3.3758,3.3784,3.3847,3.3903,3.3957,3.3996,3.3999,3.4038,3.4018,3.4103,3.403,3.4149,3.408,3.4116,3.4129,3.4135,3.4145,3.4063,3.42,3.4422,3.4447,3.4153,3.415,3.4148,0,3.3676,3.3773,3.3868,3.3891,3.3931,3.3978,3.3997,3.4032,3.407,3.4121,3.4146,3.4206,3.424,3.4289,3.4287,3.4233,3.441,3.4336,3.4418,3.4419,3.4458,3.4456,3.4692,3.4477,3.4477,3.4477,3.4476,0,3.3847,3.3934,3.393,3.3989,3.4087,3.4073,3.4171,3.4186,3.4219,3.4283,3.4252,3.4314,3.4306,3.437,3.4369,3.4471,3.4486,3.4493,3.4492,3.4497,3.4497,3.4522,3.4513,3.4483,3.4481,3.448,3.4479,0,3.4015,3.4015,3.4118,3.4148,3.4158,3.423,3.4257,3.4316,3.4322,3.4405,3.4424,3.4435,3.4509,3.4512,3.4596,3.4596,3.4722,3.4707,3.4708,3.4706,3.479,3.4784,3.5053,3.509,3.4848,3.485,3.4852,0,3.4125,3.4191,3.4229,3.427,3.4292,3.4357,3.4397,3.4388,3.4431,3.4483,3.4537,3.4607,3.4663,3.4783,3.4801,3.4867,3.4856,3.4946,3.4866,3.4871,3.4862,3.486,3.4868,3.4963,3.4965,3.4968,3.4969,0,3.4322,3.4321,3.4377,3.4436,3.4484,3.453,3.4573,3.4609,3.4605,3.4656,3.4731,3.4774,3.4862,3.4934,3.4999,3.5022,3.4998,3.4994,3.5018,3.5025,3.5024,3.503,3.4754,3.4989,3.4987,3.4985,3.4984,3.4983,3.4467,3.4526,3.4563,3.4629,3.4661,3.4703,3.476,3.4775,3.4836,3.4906,3.4897,3.4982,3.5025,3.5109,3.5139,3.5207,3.5176,3.5209,3.5218,3.5227,3.5238,3.5011,3.5218,3.5218,3.5217,3.5217,3.5217,0,3.4666,3.4689,3.475,3.4811,3.4865,3.4835,3.4882,3.493,3.5004,3.5045,3.5101,3.519,3.5261,3.5286,3.5356,3.5406,3.5397,3.5425,3.5423,3.543,3.5259,3.5233,3.5432,3.5432,3.5432,3.5432,3.5432,3.5432,3.4776,3.4875,3.4879,3.4995,3.5018,3.5099,3.5129,3.517,3.5203,3.5303,3.5361,3.5376,3.5413,3.5486,3.5552,3.5558,3.5587,3.5621,3.5622,3.5463,3.5441,3.5421,3.5397,3.5626,3.5627,3.5788,3.5789,3.5791]},{"header":{"parameterUnit":"m.s-1","parameterCategory":1,"la1":30.2991,"la2":30.254,"lo1":-89.0895,"lo2":-89.0444,"dy":0.0017,"dx":0.0017,"nx":28,"ny":28,"refTime":"2024-10-13T09:00:00:Z","depth":0,"parameterNumber":3,"parameterNumberName":"V-component_of_WINDS"},"data":[0,0,0,0,0,0,0,0,0,0,0,0,0,0,0,0,0,0,0,0,0,0,0,0,0,0,0,0,0,0,0,0,0,0,0,0,0,0,0,0,0,0,0,0,0,0,0,0,0,0,0,0,0,0,0,0,0,0,0.1214,0.1215,0,0.1307,0.1308,0.131,0.1325,0.1324,0.1323,0.1322,0.1416,0.1419,0.1423,0,0,0,0,0,0,0,0,0,0,0,0,0,0.1047,0.105,0.1214,0.1215,0.1217,0.1307,0.1309,0.131,0.1325,0.1324,0.1323,0.1322,0.1415,0.1419,0.1423,0,0,0,0,0,0,0,0,0,0,0,0,0,0.1128,0.1051,0.1214,0.1235,0.1238,0.1307,0.1309,0.131,0.1325,0.1324,0.1323,0.1321,0.1414,0.1419,0.1424,0.1478,0,0,0.1438,0.1441,0,0,0,0,0,0,0,0,0.1123,0.1134,0.1231,0.1234,0.1237,0.1303,0.1284,0.1366,0.1325,0.1292,0.1322,0.1321,0.138,0.1387,0.1407,0.1482,0.1486,0.1439,0.1442,0.1444,0.1445,0,0,0,0,0,0,0,0.1117,0.113,0.1251,0.1232,0.1236,0.1239,0.1249,0.13,0.1341,0.1295,0.1296,0.1307,0.1381,0.1403,0.141,0.1488,0.1439,0.1443,0.1446,0.1448,0.1609,0.161,0,0,0,0,0,0,0.1108,0.1125,0.1248,0.1254,0.1176,0.1243,0.1254,0.1283,0.1341,0.1348,0.1308,0.1307,0.1395,0.1404,0.1413,0.1479,0.1444,0.1448,0.1451,0.1608,0.1609,0.1611,0,0,0,0,0,0,0.1105,0.1119,0.1244,0.119,0.1206,0.1247,0.1279,0.1286,0.1307,0.1351,0.1358,0.1322,0.1394,0.1406,0.1461,0.1482,0.1451,0.1455,0.1606,0.1608,0.161,0.1612,0,0,0,0,0,0,0.11,0.1118,0.114,0.119,0.1209,0.1292,0.1281,0.1288,0.1316,0.1316,0.1366,0.1374,0.1394,0.1454,0.1466,0.1488,0.1459,0.1604,0.1607,0.161,0.161,0.1614,0.1617,0,0,0,0,0,0.1094,0.1137,0.1141,0.1156,0.1237,0.1293,0.1304,0.1327,0.1317,0.1339,0.1367,0.1372,0.1478,0.1459,0.1473,0.1497,0.1603,0.1606,0.1609,0.1608,0.1613,0.1617,0,0,0,0,0,0,0.1088,0.1144,0.1149,0.121,0.1246,0.1296,0.1324,0.1331,0.1371,0.137,0.1396,0.1408,0.1461,0.1485,0.1463,0.1552,0.154,0.1546,0.1534,0.1539,0.1542,0.1535,0.1463,0,0,0,0,0,0.1093,0.1135,0.1181,0.123,0.1249,0.1283,0.1308,0.1323,0.1362,0.1377,0.1409,0.1446,0.1488,0.1515,0.1555,0.1613,0.1623,0.1637,0.164,0.1642,0.1647,0.1677,0.1683,0.1621,0.1621,0.1621,0,0,0.1106,0.1142,0.1166,0.123,0.126,0.1301,0.1296,0.134,0.1371,0.1384,0.1438,0.1462,0.1505,0.1561,0.1587,0.1583,0.1666,0.1646,0.1648,0.1651,0.1681,0.1687,0.1692,0.1623,0.1623,0.1622,0,0,0.1149,0.1181,0.1224,0.1254,0.13,0.1322,0.1332,0.138,0.1397,0.1451,0.1461,0.1497,0.1569,0.1598,0.1623,0.1674,0.168,0.1687,0.1704,0.1733,0.1738,0.1742,0.1759,0.1765,0.1691,0.1691,0.1691,0,0.1159,0.1222,0.1246,0.1289,0.1316,0.133,0.1373,0.1401,0.1457,0.1475,0.1469,0.1557,0.1587,0.1649,0.1661,0.1681,0.1693,0.1681,0.1736,0.174,0.1745,0.1761,0.1767,0.1692,0.1692,0.1692,0.1692,0,0.123,0.1274,0.1303,0.1357,0.1387,0.143,0.1459,0.1487,0.1498,0.152,0.1574,0.161,0.1657,0.1673,0.1685,0.1737,0.1732,0.173,0.1719,0.1751,0.1766,0.1773,0.1693,0.1692,0.1692,0.1692,0,0,0.1274,0.1339,0.1349,0.1372,0.1423,0.1456,0.1499,0.1545,0.1567,0.1605,0.1641,0.17,0.1698,0.1725,0.174,0.1766,0.1802,0.1761,0.1762,0.1766,0.1859,0.1859,0.1866,0.1806,0.1807,0.1808,0.1855,0,0.1322,0.1399,0.1421,0.1486,0.1525,0.1537,0.1574,0.1608,0.1629,0.1665,0.1688,0.1729,0.1724,0.1741,0.1767,0.1792,0.1821,0.1789,0.1838,0.1839,0.1826,0.1875,0.1876,0.1917,0.1861,0.1862,0.1863,0,0.1389,0.1428,0.1496,0.1539,0.1557,0.159,0.1632,0.1667,0.1705,0.1718,0.1748,0.176,0.1803,0.1789,0.1848,0.1826,0.1847,0.1862,0.1864,0.1869,0.1853,0.188,0.1932,0.1937,0.1873,0.1872,0.1872,0,0.1412,0.1481,0.153,0.155,0.1603,0.1625,0.1647,0.1684,0.171,0.1747,0.1764,0.1805,0.1828,0.1859,0.1881,0.1869,0.1937,0.1926,0.1948,0.1948,0.1962,0.1961,0.2017,0.1977,0.1977,0.1977,0.1977,0,0.1463,0.1504,0.1541,0.1571,0.1617,0.1641,0.1685,0.1708,0.174,0.1774,0.1787,0.1818,0.1846,0.1881,0.1898,0.1943,0.1954,0.1965,0.1969,0.1963,0.1961,0.1977,0.1974,0.1979,0.1978,0.1978,0.1978,0,0.1497,0.1523,0.1578,0.1622,0.1634,0.1665,0.1703,0.1732,0.1753,0.1795,0.1807,0.184,0.1881,0.1906,0.1958,0.197,0.2019,0.2022,0.2006,0.2008,0.2029,0.2026,0.2096,0.2106,0.206,0.206,0.2061,0,0.1527,0.1559,0.1606,0.163,0.1653,0.1691,0.1717,0.1741,0.1767,0.1811,0.1834,0.1876,0.1911,0.1975,0.2003,0.2043,0.2047,0.2068,0.2053,0.2045,0.2045,0.2043,0.2045,0.2071,0.2071,0.2072,0.2072,0,0.1578,0.1589,0.1627,0.1668,0.1698,0.1732,0.1765,0.1783,0.1812,0.1841,0.1883,0.191,0.1962,0.2003,0.2044,0.2066,0.2073,0.2076,0.2084,0.2078,0.2067,0.2072,0.2012,0.2075,0.2075,0.2074,0.2074,0.2074,0.1611,0.1639,0.1676,0.1716,0.1743,0.1774,0.1802,0.1827,0.1862,0.1907,0.1919,0.1962,0.1997,0.2053,0.2076,0.2109,0.2106,0.2117,0.2119,0.2121,0.2121,0.2062,0.2117,0.2117,0.2117,0.2117,0.2117,0,0.1661,0.1685,0.1722,0.1768,0.1799,0.1803,0.1839,0.1865,0.1903,0.1935,0.1969,0.2016,0.2055,0.2085,0.2125,0.2145,0.2149,0.2155,0.2153,0.2158,0.2123,0.2112,0.2151,0.2151,0.2151,0.2151,0.2151,0.2151,0.1691,0.1738,0.1753,0.1813,0.1836,0.188,0.19,0.1927,0.1952,0.2005,0.2037,0.2056,0.2087,0.2129,0.2164,0.2172,0.2185,0.219,0.2198,0.2164,0.2161,0.2157,0.2147,0.2193,0.2193,0.223,0.223,0.2231]}]]